Location: Orinda
(37.8771°N, 122.1797°W)
Time: 23:52:32
(UTC+00:00)

Cosmos 1140 Rocket - Pass Details

Date: 21 October 2019
Orbit: 745 x 766 km, 74.1° (Epoch: 14 November)

Event Time Altitude Azimuth Distance (km) Brightness Sun altitude
Exits shadow 12:55:34 32° 268° (W) 1,268 4.1 -17.9°
Maximum altitude 12:56:39 36° 294° (WNW) 1,186 4.0 -17.7°
Drops below altitude 10° 13:01:23 10° 1° (N) 2,279 6.0 -16.8°
Sets 13:03:56 0° 10° (N) 3,204 6.8 -16.3°
